Location: Banff
(51.1667°N, 115.5667°W)
Time: 06:29:13
(UTC+00:00)

S-56A Canister/Altair - Pass Details

Date: 28 November 2020
Orbit: 633 x 2499 km, 38.9° (Epoch: 21 January)

Event Time Altitude Azimuth Distance (km) Brightness Sun altitude
Rises 04:11:34 0° 234° (SW) 5,304 12.2 -41.4°
Reaches altitude 10° 04:15:58 10° 226° (SW) 3,988 11.4 -42.1°
Enters shadow 04:19:43 20° 211° (SSW) 2,951 10.5 -42.6°
Maximum altitude 04:24:05 30° 171° (S) 2,179 - -43.3°
Drops below altitude 10° 04:29:56 10° 113° (ESE) 2,825 - -44.1°
Sets 04:32:30 0° 102° (ESE) 3,564 - -44.5°
